Weather History for VIAR - October, 2013

Change the Weather History Date:

Friday, October 25, 2013

  Actual Average Record
Temperature  
Mean Temperature 75 °F -  
Max Temperature 87 °F 83 °F 91 °F (2000)
Min Temperature 63 °F 59 °F 51 °F (2004)
Cooling Degree Days 10    
Growing Degree Days 25 (Base 50)    
Moisture  
Dew Point 67 °F    
Average Humidity 80    
Maximum Humidity 100    
Minimum Humidity 42    
Precipitation  
Precipitation 0.00 in - - ()
Sea Level Pressure  
Sea Level Pressure 29.89 in    
Wind  
Wind Speed 1 mph ()    
Max Wind Speed 8 mph    
Max Gust Speed -    
Visibility 1.1 miles    
Events Fog    
Averages and records for this station are not official NWS values.
T = Trace of Precipitation, MM = Missing Value Source: Averaged Metar Reports

Daily Weather History Graph

Daily Weather History Graph

Search for Another Location

Airport or City:

Trip Planner

Search our weather history database for the weather conditions in past years. The results will help you decide how hot, cold, wet, or windy it might be!

Date:

Astronomy

Oct. 25, 2013 Rise Set
Actual Time 6:41 AM IST 5:48 PM IST
Civil Twilight 6:16 AM IST 6:12 PM IST
Nautical Twilight 5:47 AM IST 6:41 PM IST
Astronomical Twilight 5:19 AM IST 7:09 PM IST
Moon 10:48 PM IST (10/25) 11:57 AM IST (10/25)
Length of Visible Light 11h 56m
Length of Day
11h 06m
Waning Gibbous, 66% of the Moon is Illuminated
Oct 25
Waning Gibbous
Oct 27
Last Quarter
Nov 3
New
Nov 10
First Quarter
Nov 17
Full

Hourly Weather History & Observations

Time (IST) Temp. Heat Index Dew Point Humidity Pressure Visibility Wind Dir Wind Speed Gust Speed Precip Events Conditions
12:00 AM 69.8 °F - 66.2 °F 88% 29.92 in 1.2 mi Calm Calm - N/A   Mist
12:30 AM 68.0 °F - 66.2 °F 94% 29.92 in 1.2 mi Calm Calm - N/A   Mist
1:00 AM 68.0 °F - 66.2 °F 94% 29.92 in 1.2 mi Calm Calm - N/A   Mist
1:30 AM 68.0 °F - 66.2 °F 94% 29.89 in 1.2 mi Calm Calm - N/A   Mist
2:00 AM 66.2 °F - 66.2 °F 100% 29.89 in 1.2 mi Calm Calm - N/A   Mist
2:30 AM 67 °F - 65 °F 90% 29.88 in 1 mi Calm Calm - -   Mist
2:30 AM 66.2 °F - 64.4 °F 94% 29.89 in 1.2 mi Calm Calm - N/A   Mist
3:00 AM 68.0 °F - 64.4 °F 88% 29.89 in 1.0 mi Calm Calm - N/A   Mist
3:30 AM 66.2 °F - 64.4 °F 94% 29.89 in 1.0 mi Calm Calm - N/A   Mist
4:00 AM 66.2 °F - 64.4 °F 94% 29.89 in 1.0 mi Calm Calm - N/A   Mist
4:30 AM 66.2 °F - 64.4 °F 94% 29.89 in 1.0 mi Calm Calm - N/A   Mist
5:00 AM 66.2 °F - 64.4 °F 94% 29.89 in 1.0 mi Calm Calm - N/A   Mist
5:30 AM 66.2 °F - 64.4 °F 94% 29.89 in 1.0 mi Calm Calm - N/A   Mist
6:00 AM 66.2 °F - 64.4 °F 94% 29.92 in 1.0 mi Calm Calm - N/A   Mist
6:30 AM 66.2 °F - 64.4 °F 94% 29.92 in 1.0 mi Calm Calm - N/A   Mist
7:00 AM 64.4 °F - 64.4 °F 100% 29.92 in 0.6 mi Calm Calm - N/A   Mist
7:30 AM 66.2 °F - 66.2 °F 100% 29.95 in 0.5 mi Calm Calm - N/A Fog Fog
8:00 AM 68.0 °F - 66.2 °F 94% 29.95 in 0.5 mi Calm Calm - N/A Fog Fog
8:30 AM 70 °F - 68 °F 92% 29.94 in 0 mi Calm Calm - - Fog Shallow Fog
8:30 AM 69.8 °F - 68.0 °F 94% 29.95 in 0.5 mi Calm Calm - N/A Fog Fog
9:00 AM 73.4 °F - 69.8 °F 88% 29.98 in 0.6 mi Calm Calm - N/A Fog Fog
9:30 AM 73.4 °F - 73.4 °F 100% 29.98 in 0.6 mi Calm Calm - N/A   Mist
10:00 AM 75.2 °F - 71.6 °F 89% 29.98 in 0.7 mi Calm Calm - N/A   Mist
11:00 AM 78.8 °F - 68.0 °F 69% 29.98 in 0.9 mi Calm Calm - N/A   Mist
11:30 AM 83 °F - 69 °F 53% 29.92 in 1 mi Calm Calm - -   Haze
11:30 AM 82.4 °F 85.4 °F 68.0 °F 62% 29.95 in 1.1 mi Calm Calm - N/A   Haze
12:00 PM 82.4 °F 83.9 °F 64.4 °F 54% 29.95 in 1.2 mi Variable 3.5 mph - N/A   Haze
12:30 PM 84.2 °F 86.6 °F 66.2 °F 55% 29.92 in 1.2 mi Variable 2.3 mph - N/A   Haze
1:00 PM 84.2 °F 86.6 °F 66.2 °F 55% 29.92 in 1.2 mi Variable 2.3 mph - N/A   Haze
1:30 PM 86.0 °F 88.2 °F 66.2 °F 51% 29.89 in 1.2 mi WNW 6.9 mph - N/A   Haze
2:00 PM 86.0 °F 88.2 °F 66.2 °F 51% 29.89 in 1.2 mi Variable 3.5 mph - N/A   Haze
2:30 PM 86 °F - 66 °F 42% 29.84 in 1 mi 2.3 mph - -   Haze
2:30 PM 86.0 °F 88.2 °F 66.2 °F 51% 29.89 in 1.6 mi Variable 2.3 mph - N/A   Haze
3:00 PM 86.0 °F 87.3 °F 64.4 °F 48% 29.86 in 1.6 mi Variable 3.5 mph - N/A   Haze
3:30 PM 86.0 °F 87.3 °F 64.4 °F 48% 29.83 in 1.6 mi West 6.9 mph - N/A   Haze
4:00 PM 86.0 °F 88.2 °F 66.2 °F 51% 29.83 in 1.6 mi West 8.1 mph - N/A   Haze
4:30 PM 84.2 °F 86.6 °F 66.2 °F 55% 29.83 in 1.6 mi West 6.9 mph - N/A   Haze
5:00 PM 82.4 °F 85.4 °F 68.0 °F 62% 29.83 in 1.6 mi West 4.6 mph - N/A   Haze
5:30 PM 80 °F - 69 °F 61% 29.80 in 1 mi Calm Calm - -   Haze
5:30 PM 80.6 °F 83.2 °F 68.0 °F 65% 29.83 in 1.6 mi Calm Calm - N/A   Haze
6:00 PM 78.8 °F - 69.8 °F 74% 29.83 in 1.6 mi Calm Calm - N/A   Haze
6:30 PM 77.0 °F - 69.8 °F 78% 29.83 in 1.6 mi Calm Calm - N/A   Haze
7:00 PM 75.2 °F - 69.8 °F 83% 29.83 in 1.6 mi Calm Calm - N/A   Mist
7:30 PM 73.4 °F - 69.8 °F 88% 29.86 in 1.6 mi Calm Calm - N/A   Mist
8:00 PM 73.4 °F - 69.8 °F 88% 29.86 in 1.1 mi Calm Calm - N/A   Mist
8:30 PM 71.6 °F - 71.6 °F 100% 29.86 in 1.1 mi Calm Calm - N/A   Mist
9:00 PM 71.6 °F - 69.8 °F 94% 29.86 in 1.1 mi Calm Calm - N/A   Mist
9:30 PM 71.6 °F - 69.8 °F 94% 29.86 in 1.1 mi Calm Calm - N/A   Mist
10:00 PM 69.8 °F - 69.8 °F 100% 29.86 in 1.1 mi Calm Calm - N/A   Mist
10:30 PM 69.8 °F - 66.2 °F 88% 29.86 in 1.1 mi Calm Calm - N/A   Mist
11:00 PM 69.8 °F - 66.2 °F 88% 29.86 in 0.7 mi Calm Calm - N/A   Mist
11:30 PM 69 °F - 67 °F 93% 29.85 in 1 mi Calm Calm - -   Mist
11:30 PM 69.8 °F - 68.0 °F 94% 29.86 in 0.7 mi Calm Calm - N/A   Mist